Powrót do katalogu

USA 144 DEB

AktywnyMEO
NORAD 25746·DEBRIS·🇺🇸 United States

Wystrzelony May 22, 1999 z Vandenberg Space Force Base

Loading…

Następne Przeloty (najbliższe 24 godziny)

TLE

NieaktualneSource: Mike McCants

Epoka: Jul 19, 2026, 21:13 UTC

1 25746U 99028C   26200.88435172 0.00000000  00000-0  00000-0 0    03
2 25746  63.4359 102.9437 0280910 303.6938  56.3062  9.70083779    06

Śledź USA 144 DEB w czasie rzeczywistym z AllMySat

Download on the App Store